Location: Dover
(39.1580°N, 75.5250°W)
Time: 13:12:51
(UTC-04:00)

Daily predictions for brighter satellites

Satellite Brightness Start Highest point End
(mag) Time Altitude Azimuth Time Altitude Azimuth Time Altitude Azimuth
USA 186 1.8 20:50:39 10° S 20:53:25 63° W 20:56:02 10° NNW
COSMOS 2455 3.1 20:47:45 10° S 20:53:26 46° ESE 20:59:09 10° NE
Envisat 3.9 20:52:01 10° SE 20:56:28 32° ENE 21:00:56 10° N
H-2A R/B 3.1 20:52:35 10° S 20:56:32 74° W 21:00:30 10° NNW
APEX 4.0 20:55:33 10° NNW 20:59:51 77° WSW 21:05:29 10° SSE
Cosmos 1602 Rocket 3.8 20:56:04 10° S 21:00:25 54° E 21:04:47 10° NNE
CZ-4 DEB 3.6 20:58:12 10° S 21:01:21 52° W 21:04:31 10° NNW
Cosmos 2058 Rocket 3.5 20:57:26 10° NNW 21:01:47 66° W 21:06:05 10° S
Tsikada Rocket 4.3 20:55:57 10° SSE 21:02:06 52° E 21:08:15 10° NNE
Cosmos 1812 Rocket 4.0 21:08:15 10° N 21:12:29 45° E 21:16:35 11° SSE
Cosmos 1464 Rocket 4.3 21:11:59 10° NNW 21:18:05 70° W 21:24:13 10° S
deb Chang Zheng 4 3.7 21:18:22 10° N 21:22:47 81° WNW 21:27:08 10° SSW
H-2A R/B 2.1 21:19:51 10° SSE 21:24:06 83° WSW 21:28:30 10° NNW
Cosmos 2369 Rocket 2.9 21:22:47 10° N 21:28:06 39° ENE 21:32:08 16° ESE
Cosmos 1992 Rocket 4.3 21:26:19 10° N 21:31:26 52° ENE 21:35:14 17° SE
Cosmos 1666 4.0 21:28:22 10° NNW 21:32:04 41° W 21:35:43 10° SSW
Cosmos 1626 Rocket 4.0 21:27:44 10° SSW 21:32:08 65° W 21:36:32 10° N
UNK 4.5 21:27:13 10° NNE 21:32:35 51° ESE 21:38:11 10° S
Cosmos 2228 4.2 21:29:01 10° NNW 21:33:13 44° W 21:37:23 10° SSW
Meteor 2-12 Rocket 4.5 21:28:14 10° N 21:34:17 64° E 21:39:32 14° SSE
Lacrosse 4 Rocket 1.8 21:33:14 10° S 21:36:57 37° ESE 21:40:43 10° NE
Cosmos 1634 Rocket 4.4 21:31:14 10° N 21:37:08 45° ENE 21:41:29 18° SE
CZ-2C R/B 3.0 21:35:26 10° SSW 21:37:10 19° W 21:38:55 10° NW
Cosmos 2034 Rocket 4.4 21:32:25 10° NNW 21:38:43 65° W 21:44:56 10° S
SeaSat 1 2.7 21:38:41 19° SE 21:42:07 56° ENE 21:46:57 10° NNW
Cosmos 1953 Rocket 3.9 21:49:27 23° SSE 21:51:53 45° E 21:56:07 10° NNE
Cosmos 1190 Rocket 4.0 21:48:52 10° S 21:54:07 67° ESE 21:59:25 10° NNE
CZ-4B R/B 3.5 21:50:59 10° NNE 21:56:05 66° ESE 22:00:41 13° S
YAOGAN 6 2.9 21:54:35 30° SE 21:56:08 53° ENE 21:59:49 10° N
Cosmos 2346 Rocket 4.4 21:50:55 12° S 21:56:44 70° E 22:02:50 10° NNE
H-2A R/B 3.5 21:55:22 17° E 21:57:28 22° ENE 22:01:16 10° NNE
Atlas Centaur 2 3.3 21:54:32 10° WSW 22:01:28 45° S 22:06:34 22° ESE
Cosmos 1515 4.2 21:58:34 10° SSW 22:02:20 61° W 22:06:10 10° N
COSMOS 2406 4.3 22:03:46 23° ESE 22:04:32 24° E 22:08:58 10° NE
SPOT 1/Viking Rocket 3.5 22:03:18 26° SSE 22:06:12 69° ENE 22:11:20 10° N
ATLAS 3B R/B 2.9 21:58:36 10° SSW 22:06:19 83° ESE 22:13:55 10° NE
CZ-4C R/B 4.3 22:05:22 28° ESE 22:06:37 34° ENE 22:10:18 10° N
BREEZE-M DEB (TANK) 3.9 22:03:18 10° W 22:06:45 32° NNW 22:08:43 10° NE
ISS -0.9 22:04:48 10° W 22:07:35 25° NNW 22:10:21 10° NNE
Cosmos 1066 Rocket 4.2 22:02:16 11° S 22:07:41 87° E 22:13:32 10° N
Cosmos 676 Rocket 4.1 22:07:50 22° S 22:11:12 56° ESE 22:16:25 10° NNE
Meteor 1-22 Rocket 4.2 22:08:32 10° N 22:14:11 74° E 22:17:17 29° SSE
Landsat 7 4.5 22:15:11 31° ESE 22:16:45 41° ENE 22:21:13 10° N
MetOp-A 4.4 22:13:38 22° S 22:17:10 67° WSW 22:22:31 10° NNW
CZ-4 R/B 3.9 22:13:17 10° NNE 22:18:19 75° ESE 22:21:17 25° S
PSLV R/B 3.7 22:17:27 10° W 22:20:59 62° N 22:22:23 32° ENE
USA 234 3.4 22:19:11 25° ESE 22:23:13 68° NE 22:29:45 10° NW
Cosmos 1953 3.4 22:20:19 10° NNE 22:23:46 28° ENE 22:23:57 28° E
Cosmos 1943 Rocket 2.7 22:20:06 10° N 22:25:24 44° ENE 22:27:31 31° ESE
Cosmos 1758 Rocket 3.5 22:23:41 33° S 22:25:39 89° ENE 22:30:01 10° N
SPOT 5 3.9 22:23:00 16° SSW 22:25:55 34° W 22:29:52 10° NNW
BREEZE M DEB (TANK) 2.1 22:24:30 10° WNW 22:25:59 44° WNW 22:25:59 44° WNW
Cosmos 1943 3.9 22:22:07 10° SW 22:27:39 54° WNW 22:33:15 10° NNE
CARTOSAT-1 4.3 22:28:08 34° E 22:28:53 37° ENE 22:32:53 10° N
Terra 2.5 22:31:28 35° ESE 22:32:34 41° ENE 22:37:01 10° N
Cosmos 1346 Rocket 3.6 22:34:25 23° SW 22:36:32 47° WNW 22:40:21 10° N
DELTA 2 DEB (DPAF) 4.1 22:38:40 51° SSE 22:39:48 86° ENE 22:44:18 10° NNW
Cosmos 407 Rocket 4.0 22:34:49 10° SSW 22:40:01 59° WNW 22:45:11 10° N
Cosmos 1842 3.1 22:44:54 74° S 22:45:15 88° E 22:49:11 10° N
SL-27 R/B 2.9 22:46:07 50° NNE 22:46:07 50° NNE 22:48:42 10° NNE
USA 238 DEB 3.7 22:43:03 17° SSW 22:48:43 69° ESE 22:55:44 10° NE
USA 238 3.7 22:43:19 18° SSW 22:48:48 68° ESE 22:55:49 10° NE
Meteor 1-21 4.5 22:47:54 25° SSW 22:51:24 69° W 22:57:14 10° N
Cosmos 1842 Rocket 4.1 22:53:26 10° N 22:57:35 44° ENE 22:57:35 44° ENE
ARGOS 3.8 22:55:38 32° SSW 22:57:50 50° W 23:03:07 10° NNW
Cosmos 1954 Rocket 4.3 22:57:35 27° SSW 23:00:28 68° WNW 23:05:46 10° NNE
Cosmos 1092 Rocket 4.2 23:02:29 45° SE 23:03:46 52° E 23:09:51 10° NNE
IGS 5A 3.3 23:05:31 83° ENE 23:05:31 83° ENE 23:09:39 10° N
Cosmos 2208 Rocket 4.0 23:02:16 10° NNW 23:07:25 61° ENE 23:08:05 56° ESE
Cosmos 1766 4.5 23:06:40 10° NNW 23:10:19 34° W 23:10:50 33° WSW
Cosmos 1758 3.4 23:06:57 10° N 23:10:56 77° WNW 23:10:56 77° WNW
Cosmos 2369 Rocket 3.6 23:07:11 10° NW 23:11:54 28° WSW 23:13:56 22° SW
Meteor 2-5 Rocket 4.2 23:11:50 42° ESE 23:12:11 43° E 23:17:37 10° NNE
Nadezhda 4 Rocket 3.9 23:11:18 48° S 23:13:15 85° E 23:19:37 10° N
Lacrosse 4 Rocket 4.0 23:12:54 10° W 23:15:48 19° NW 23:18:44 10° N
Cosmos 2084 3.4 23:11:46 10° NW 23:15:41 78° NNW 23:15:41 78° NNW
SL-8 R/B 4.5 23:14:17 10° NW 23:18:57 47° NNE 23:20:17 37° ENE
SeaSat 1 4.4 23:18:29 16° SW 23:19:54 18° WSW 23:23:13 10° WNW
Cosmos 1741 Rocket 3.9 23:21:13 66° SSW 23:22:00 90° W 23:27:21 10° NNE
NOSS 3-2 (C) 4.2 23:24:06 35° E 23:24:06 35° E 23:29:05 10° NE
Cosmos 1340 4.0 23:34:32 36° NNE 23:34:32 36° NNE 23:36:55 10° NNE
Cosmos 2221 3.7 23:31:16 10° N 23:34:25 33° NE 23:34:25 33° NE
Cosmos 1655 Rocket 4.3 23:35:25 48° ESE 23:35:54 49° E 23:41:53 10° NNE
H-2A R/B 2.7 23:36:00 40° WSW 23:36:34 42° W 23:41:22 10° NNW
Cosmos 1470 3.7 23:33:46 10° N 23:36:33 44° N 23:36:33 44° N
Cosmos-2242 4.4 23:34:06 10° NNW 23:37:56 30° W 23:38:15 30° W
Cosmos 1850 Rocket 4.3 23:37:40 49° WSW 23:38:47 61° WNW 23:43:58 10° NNE
Cosmos 1570 Rocket 4.2 23:36:33 10° NNW 23:41:50 59° WSW 23:42:07 59° WSW
CZ-4C R/B 2.4 23:45:27 53° E 23:45:27 53° E 23:50:22 10° NE
ISS 0.4 23:44:33 10° NNW 23:44:56 10° N 23:45:18 10° N
Cosmos 1544 4.5 23:43:22 10° NNW 23:45:56 39° NW 23:45:56 39° NW
COSMOS 2406 4.1 23:45:47 27° WSW 23:48:29 46° WNW 23:54:00 10° NNE
Cosmos 1607 4.3 23:45:43 29° SW 23:48:55 62° NW 23:55:04 10° NNE
Atlas Centaur 2 3.7 23:43:32 10° WSW 23:49:12 34° SW 23:49:12 34° SW
Cosmos 2026 Rocket 3.8 23:52:27 67° ESE 23:52:50 69° E 23:58:51 10° NNE
